Location: Newark
(43.4100°N, 74.9600°W)
Time: 15:40:49
(UTC+00:00)

ISS - Pass Details

Date: 25 September 2019
Orbit: 411 x 421 km, 51.6° (Epoch: 21 October)

Event Time Altitude Azimuth Distance (km) Brightness Sun altitude
Rises 01:31:54 0° 290° (WNW) 2,344 1.2 -28.4°
Reaches altitude 10° 01:34:24 10° 309° (NW) 1,482 -0.1 -28.8°
Enters shadow 01:35:26 15° 324° (NW) 1,212 -0.7 -28.9°
